Regional Weather Roundup
Issued by NWS

Home | Current Version | Previous Version | Text Only | Print | Product List | Glossary Off
Versions: 1 2 3 4 5 6 7 8 9 10 11 12 13 14 15 16 17 18 19 20 21 22 23 24 25 26 27 28 29 30 31 32 33 34 35 36 37 38 39 40 41 42 43 44 45 46 47 48 49 50

000
ASUS43 KDTX 291610
RWRMI
MICHIGAN HOURLY REGIONAL WEATHER ROUNDUP
NATIONAL WEATHER SERVICE DETROIT/PONTIAC MI
1200 PM EDT MON MAY 29 2017

NOTE: "FAIR" INDICATES FEW OR NO CLOUDS BELOW 12,000 FEET WITH NO
SIGNIFICANT WEATHER AND/OR OBSTRUCTION TO VISIBILITY.

MIZ047>049-052>055-059>063-066>070-074>076-081>083-291700-
SOUTHEAST LOWER MICHIGAN

CITY           SKY/WX    TMP DP  RH WIND       PRES   REMARKS
ADRIAN         SUNNY     73  58  59 SW14      29.83R
ALMA           SUNNY     75  47  37 SW14G28   29.74S
ANN ARBOR      SUNNY     74  58  57 S10       29.80S
BAD AXE        SUNNY     72  49  44 SW12G22   29.76R
CARO           SUNNY     73  54  50 SW10G16   29.75S
DETROIT CITY   SUNNY     75  53  46 SW12      29.80S
DETROIT        MOSUNNY   75  54  47 SW15      29.81F
FLINT          SUNNY     74  48  39 W15G26    29.77S
GROSSE ILE     SUNNY     69  60  73 S10       29.81R
HILLSDALE      SUNNY     73  52  46 W12G18    29.82S
HOWELL         SUNNY     74  47  38 SW13      29.79S

CITY           SKY/WX    TMP DP  RH WIND       PRES   REMARKS
JACKSON        SUNNY     75  49  39 W20G29    29.80S
LAMBERTVILLE   SUNNY     74  54  48 SW9       29.82S
LANSING        MOSUNNY   77  45  32 W18G26    29.77S
LAPEER         FAIR      74  49  40 W10G17    29.78S
MASON          SUNNY     75  51  43 W10G20    29.79S
MONROE         SUNNY     75  56  50 SW10G17   29.81S
MT. CLEMENS    SUNNY     76  52  43 S10       29.79S
PONTIAC        MOSUNNY   74  48  39 SW14      29.78S
PORT HOPE        N/A     74  54  49 SW8       29.73R
PORT HURON     SUNNY     73  46  38 SW6       29.79F
TRI CITIES     MOSUNNY   75  48  38 SW21G35   29.73F
MIDLAND        FAIR      75  47  37 SW12G20   29.72S
TROY           SUNNY     76  44  31 S9G17     29.81S
SAGINAW HB     SUNNY     77  41  27 SW13G23   29.73S
$$
MIZ043>046-050>051-056>058-064>065-071>073-077>080-291700-
SOUTHWEST LOWER MICHIGAN

CITY           SKY/WX    TMP DP  RH WIND       PRES   REMARKS
BATTLE CREEK   SUNNY     76  49  38 W15G28    29.81R
BENTON HARBOR  SUNNY     71  47  42 W16G25    29.82R
BIG RAPIDS     SUNNY     70  39  32 W24G31    29.73R
COLDWATER      SUNNY     74  49  40 W16       29.82R
FREMONT        FAIR      70  43  38 W13G18    29.76R
HOLLAND        MOSUNNY   67  48  50 W15       29.81R
GRAND RAPIDS   MOSUNNY   73  46  38 W21G33    29.79R
IONIA          FAIR      75  44  32 W28G35    29.77R
KALAMAZOO      SUNNY     75  43  31 W18G26    29.81R
LUDINGTON      SUNNY     61  51  70 SW10      29.74R
MARSHALL       SUNNY     75  49  40 SW16G22   29.80S
MOUNT PLEASANT SUNNY     74  45  35 SW20G26   29.72S
MUSKEGON       PTSUNNY   64  47  53 W7        29.78S
SOUTH HAVEN    SUNNY     70  48  46 W13       29.81S
$$
MIZ016>042-291700-
NORTHERN LOWER MICHIGAN

CITY           SKY/WX    TMP DP  RH WIND       PRES   REMARKS
ALPENA         SUNNY     70  45  40 SW14G21   29.70R
BEAVER ISLAND  MOSUNNY   61  51  69 SW10G18   29.66S
BELLAIRE       SUNNY     63  50  63 S7        29.70R
CADILLAC       MOSUNNY   69  46  43 SW20G29   29.70S
CHARLEVOIX     PTSUNNY   59  51  75 SW8G16    29.71R
FRANKFORT      SUNNY     63  48  57 SW7       29.70R
GAYLORD        MOSUNNY   64  45  49 W10       29.71R
GRAYLING       SUNNY     70  47  44 W7        29.70S
HARBOR SPRINGS CLOUDY    58  51  76 W5        29.68S
HOUGHTON LAKE  MOSUNNY   70  46  42 SW16G24   29.70S
MANISTEE       SUNNY     65  48  54 W9G20     29.71
OSCODA         MOSUNNY   73  50  44 S9G21     29.70S
PELLSTON       LGT RAIN  56  48  74 W7G20     29.67F
ROGERS CITY    MOSUNNY   53  51  94 E6        29.71R
TRAVERSE CITY  PTSUNNY   67  48  50 W10G18    29.68R
$$
MIZ007>008-015-291700-
EASTERN UPPER MICHIGAN

CITY           SKY/WX    TMP DP  RH WIND       PRES   REMARKS
KINROSS        CLOUDY    57  53  86 SW7       29.66S
MACKINAC ISLAN PTSUNNY   56  56 100 S6        29.67S
NEWBERRY       PTSUNNY   55  52  89 SW9       29.63S
S. S. MARIE    CLOUDY    59  53  80 S8        29.65R
MUNISING         N/A     61  53  75 VRB5      29.58S
$$
MIZ004>006-011>014-085-291700-
CENTRAL UPPER MICHIGAN

CITY           SKY/WX    TMP DP  RH WIND       PRES   REMARKS
MANISTIQUE     MOSUNNY   52  49  90 SE8       29.63S
ESCANABA       PTSUNNY   63  50  62 W16G23    29.62F
SAWYER-GWINN   CLOUDY    57  50  77 SW10G17   29.61S
$$
MIZ001>003-009>011-084-291700-
WESTERN UPPER MICHIGAN

CITY           SKY/WX    TMP DP  RH WIND       PRES   REMARKS
IRON MOUNTAIN  CLOUDY    61  47  59 W17       29.63R
HOUGHTON       CLOUDY    48  46  93 W15       29.58R FOG
COPPER HARBOR    N/A     48  46  93 N8        29.57R
IRONWOOD       HVY RAIN  54  51  90 NW7       29.65R
$$

ABBREVIATIONS USED IN REMARKS
   TC - TEMPERATURE IN CELSIUS
  WCI - WIND CHILL INDEX
   HX - HEAT INDEX
  VSB - VISIBILITY





USA.gov is the U.S. government's official web portal to all federal, state and local government web resources and services.